Location: Azul
(36.7830°S, 59.8500°W)
Time: 20:20:55
(UTC-03:00)

CAS-4B - Visible Passes

Search period start: 23 October 2021 00:00
Search period end: 02 November 2021 00:00
Orbit: 529 x 541 km, 43.0° (Epoch: 23 October)

Date Brightness Start Highest point End Pass type
(mag) Time Alt. Az. Time Alt. Az. Time Alt. Az.
23 Oct ? 04:02:54 65° SSW 04:02:59 65° SSW 04:07:05 10° ESE visible
24 Oct ? 03:52:17 55° S 03:52:17 55° S 03:56:09 10° ESE visible
24 Oct ? 05:28:57 10° WSW 05:32:42 33° S 05:36:28 10° ESE visible
25 Oct ? 03:41:39 46° S 03:41:39 46° S 03:45:13 10° ESE visible
25 Oct ? 05:18:07 10° WSW 05:21:52 33° S 05:25:38 10° ESE visible
26 Oct ? 03:31:00 39° SSE 03:31:00 39° SSE 03:34:18 10° ESE visible
26 Oct ? 05:07:15 10° WSW 05:11:02 34° S 05:14:49 10° ESE visible
27 Oct ? 03:20:22 34° SSE 03:20:22 34° SSE 03:23:23 10° ESE visible
27 Oct ? 04:56:23 10° WSW 05:00:11 35° S 05:04:00 10° ESE visible
28 Oct ? 03:09:45 30° SSE 03:09:45 30° SSE 03:12:28 10° ESE visible
28 Oct ? 04:45:29 10° WSW 04:49:20 38° S 04:53:11 10° E visible
29 Oct ? 02:59:11 27° SE 02:59:11 27° SE 03:01:35 10° ESE visible
29 Oct ? 04:34:33 10° WSW 04:38:28 41° SSE 04:42:22 10° E visible
30 Oct ? 02:48:41 23° SE 02:48:41 23° SE 02:50:42 10° ESE visible
30 Oct ? 04:24:00 12° WSW 04:27:36 46° SSE 04:31:33 10° E visible
31 Oct ? 02:38:19 20° SE 02:38:19 20° SE 02:39:50 10° ESE visible
31 Oct ? 04:13:38 16° SW 04:16:43 52° SSE 04:20:43 10° E visible
01 Nov ? 02:28:06 15° ESE 02:28:06 15° ESE 02:28:59 10° ESE visible
01 Nov ? 04:03:26 23° SW 04:05:48 61° SSE 04:09:51 10° ENE visible
